DW8722 Weather Reports


time (UTC)temp
C
wind
direction
speed
KPH
gust
KPH
rain 1hr
cm
rain 24hr
cm
rain mn
cm
humidity
%
barometer
mb
20260906074227 25 156 0.0 0.0 0.00 0.00 0.00 83 1011.4
20260906072140 25 156 0.0 0.0 0.00 0.00 0.00 83 1011.6
20260906071139 25 156 0.0 0.0 0.00 0.00 0.00 82 1011.7
20260906070159 25 156 0.0 0.0 0.00 0.00 0.00 83 1011.8
20260906065202 25 156 0.0 0.0 0.00 0.00 0.00 82 1011.9
20260906064202 25 138 0.0 0.0 0.00 0.00 0.00 82 1011.9
20260906063132 25 130 1.6 0.0 0.00 0.00 0.00 81 1011.8
20260906061026 26 141 1.6 6.4 0.00 0.00 0.00 81 1011.8
20260906055954 25 164 1.6 6.4 0.00 0.00 0.00 80 1012.0
20260906053849 26 134 0.0 0.0 0.00 0.00 0.00 79 1012.0
20260906052821 26 134 0.0 0.0 0.00 0.00 0.00 78 1011.9
20260906051834 26 161 0.0 0.0 0.00 0.00 0.00 77 1011.9
20260906050833 26 161 0.0 0.0 0.00 0.00 0.00 76 1011.7
20260906045815 26 161 0.0 0.0 0.00 0.00 0.00 75 1011.6
20260906044816 27 161 0.0 0.0 0.00 0.00 0.00 75 1011.7
20260906043827 27 161 0.0 0.0 0.00 0.00 0.00 74 1011.8
20260906042824 27 161 0.0 6.4 0.00 0.00 0.00 73 1011.8
20260906041802 27 136 1.6 6.4 0.00 0.00 0.00 72 1011.9
20260906040806 27 136 0.0 4.8 0.00 0.00 0.00 71 1012.0
20260906035747 28 165 0.0 1.6 0.00 0.00 0.00 70 1011.8
20260906034731 28 161 1.6 11.3 0.00 0.00 0.00 70 1011.8
20260906033725 28 171 3.2 11.3 0.00 0.00 0.00 70 1011.8
20260906032733 28 173 1.6 4.8 0.00 0.00 0.00 69 1011.7
20260906031751 28 209 0.0 4.8 0.00 0.00 0.00 69 1011.6
20260906024523 29 169 1.6 8.0 0.00 0.00 0.00 68 1011.6
20260906023514 29 171 1.6 9.7 0.00 0.00 0.00 67 1011.5
20260906021350 30 143 3.2 9.7 0.00 0.00 0.00 66 1011.0
20260906020328 30 156 3.2 14.5 0.00 0.00 0.00 65 1010.9
20260906015305 30 179 4.8 14.5 0.00 0.00 0.00 65 1010.9
20260906013145 30 167 4.8 11.3 0.00 0.00 0.00 65 1010.7
20260906011100 31 160 6.4 17.7 0.00 0.00 0.00 63 1010.4
20260906010107 31 125 9.7 25.7 0.00 0.00 0.00 61 1010.3
20260906005128 32 161 12.9 25.7 0.00 0.00 0.00 59 1010.1
20260906004143 33 144 12.9 27.4 0.00 0.00 0.00 54 1010.0
20260906000909 36 157 4.8 14.5 0.00 0.00 0.00 43 1009.8
20260905235854 36 148 4.8 14.5 0.00 0.00 0.00 42 1009.6
20260905234846 37 183 1.6 9.7 0.00 0.00 0.00 41 1009.6
20260905233823 37 123 1.6 0.0 0.00 0.00 0.00 40 1009.5
20260905232824 37 146 4.8 9.7 0.00 0.00 0.00 41 1009.5
20260905231823 37 94 1.6 4.8 0.00 0.00 0.00 41 1009.5
20260905230802 37 137 0.0 3.2 0.00 0.00 0.00 41 1009.6
20260905225814 37 67 0.0 0.0 0.00 0.00 0.00 40 1009.5
20260905224821 37 72 1.6 8.0 0.00 0.00 0.00 40 1009.5
20260905223842 37 88 0.0 8.0 0.00 0.00 0.00 39 1009.4
20260905222837 37 310 0.0 1.6 0.00 0.00 0.00 40 1009.4
20260905221806 38 182 4.8 19.3 0.00 0.00 0.00 39 1009.4
20260905220747 38 190 6.4 19.3 0.00 0.00 0.00 39 1009.5
20260905215731 38 159 6.4 12.9 0.00 0.00 0.00 40 1009.6
20260905214719 38 94 1.6 0.0 0.00 0.00 0.00 40 1009.7
20260905213713 38 145 4.8 14.5 0.00 0.00 0.00 40 1009.7
20260905212702 38 180 4.8 12.9 0.00 0.00 0.00 40 1009.9
20260905210557 38 213 4.8 11.3 0.00 0.00 0.00 39 1010.1
20260905205526 37 186 4.8 8.0 0.00 0.00 0.00 40 1010.3
20260905204508 37 174 3.2 6.4 0.00 0.00 0.00 40 1010.4
20260905203453 37 186 3.2 11.3 0.00 0.00 0.00 41 1010.5
20260905202445 37 149 4.8 14.5 0.00 0.00 0.00 41 1010.7
20260905200345 37 171 6.4 16.1 0.00 0.00 0.00 41 1011.0
20260905194245 36 5 1.6 12.9 0.00 0.00 0.00 42 1011.3
20260905193257 36 172 3.2 12.9 0.00 0.00 0.00 45 1011.5
20260905192253 36 330 1.6 9.7 0.00 0.00 0.00 44 1011.6
20260905191311 36 159 3.2 9.7 0.00 0.00 0.00 44 1011.9
20260905185148 36 172 3.2 11.3 0.00 0.00 0.00 45 1012.3
20260905184156 36 161 6.4 24.1 0.00 0.00 0.00 46 1012.4
20260905183151 35 168 3.2 24.1 0.00 0.00 0.00 48 1012.5
20260905182127 36 88 3.2 14.5 0.00 0.00 0.00 47 1012.6
20260905181128 36 150 3.2 14.5 0.00 0.00 0.00 46 1012.7
20260905180054 36 103 9.7 17.7 0.00 0.00 0.00 47 1013.1
20260905175054 35 194 3.2 17.7 0.00 0.00 0.00 50 1013.2
20260905174115 35 198 0.0 16.1 0.00 0.00 0.00 50 1013.3
20260905173051 34 211 4.8 16.1 0.00 0.00 0.00 52 1013.5
20260905172101 34 166 3.2 12.9 0.00 0.00 0.00 51 1013.6
20260905171056 33 130 0.0 4.8 0.00 0.00 0.00 55 1013.6
20260905170055 33 215 4.8 11.3 0.00 0.00 0.00 53 1013.7
20260905165120 33 191 3.2 9.7 0.00 0.00 0.00 54 1013.8
20260905164143 33 223 1.6 3.2 0.00 0.00 0.00 55 1013.8
20260905161952 32 227 0.0 11.3 0.00 0.00 0.00 59 1013.9
20260905161006 32 196 3.2 11.3 0.00 0.00 0.00 59 1013.9
20260905155949 31 138 0.0 3.2 0.00 0.00 0.00 61 1013.9
20260905153817 31 270 3.2 9.7 0.00 0.00 0.00 63 1013.9
20260905151655 30 240 1.6 9.7 0.00 0.00 0.00 67 1013.8
20260905150703 30 200 0.0 6.4 0.00 0.00 0.00 67 1013.7
20260905145638 30 239 3.2 9.7 0.00 0.00 0.00 68 1013.7
20260905144700 30 171 1.6 9.7 0.00 0.00 0.00 70 1013.8
20260905143704 29 198 3.2 8.0 0.00 0.00 0.00 71 1013.7
20260905142701 29 266 1.6 9.7 0.00 0.00 0.00 72 1013.7
20260905141633 28 228 3.2 9.7 0.00 0.00 0.00 73 1013.7
20260905140615 28 184 1.6 8.0 0.00 0.00 0.00 75 1013.6
20260905135547 27 194 0.0 6.4 0.00 0.00 0.00 77 1013.6
20260905134602 27 217 0.0 0.0 0.00 0.00 0.00 80 1013.5
20260905132436 25 150 0.0 0.0 0.00 0.00 0.00 85 1013.5
20260905131444 25 150 0.0 0.0 0.00 0.00 0.00 87 1013.5
20260905130418 24 150 0.0 0.0 0.00 0.00 0.00 88 1013.4
20260905125345 23 150 0.0 0.0 0.00 0.00 0.00 89 1013.3
20260905124325 23 150 0.0 0.0 0.00 0.00 0.00 88 1013.3
20260905122120 23 150 0.0 0.0 0.00 0.00 0.00 87 1012.8
20260905121107 23 150 0.0 0.0 0.00 0.00 0.00 87 1012.7
20260905114956 23 150 0.0 0.0 0.00 0.00 0.00 88 1012.6
20260905112901 23 71 0.0 0.0 0.00 0.00 0.00 87 1012.6
20260905111919 23 71 0.0 0.0 0.00 0.00 0.00 87 1012.6
20260905110912 23 71 0.0 0.0 0.00 0.00 0.00 86 1012.6
20260905105930 23 71 0.0 0.0 0.00 0.00 0.00 86 1012.7
20260905104929 23 71 0.0 0.0 0.00 0.00 0.00 86 1012.6
20260905103903 23 71 0.0 0.0 0.00 0.00 0.00 86 1012.8
20260905102927 23 71 0.0 0.0 0.00 0.00 0.00 86 1013.0
20260905100838 23 71 0.0 0.0 0.00 0.00 0.00 85 1012.8
20260905095826 23 71 0.0 0.0 0.00 0.00 0.00 85 1012.7
20260905094829 23 71 0.0 0.0 0.00 0.00 0.00 84 1012.6
20260905093806 24 71 0.0 0.0 0.00 0.00 0.00 84 1012.6
20260905092807 24 73 0.0 0.0 0.00 0.00 0.00 84 1012.5
20260905091825 24 151 0.0 0.0 0.00 0.00 0.00 83 1012.4
20260905090842 24 151 0.0 0.0 0.00 0.00 0.00 82 1012.2
20260905085842 25 151 0.0 0.0 0.00 0.00 0.00 82 1012.1
20260905083710 25 148 0.0 0.0 0.00 0.00 0.00 82 1012.1
20260905082726 25 145 0.0 0.0 0.00 0.00 0.00 82 1012.1
20260905081727 25 145 0.0 0.0 0.00 0.00 0.00 81 1012.1